Location: ČR
(50.0000°N, 15.0000°E)
Time: 03:17:34
(UTC+00:00)

Courier 1B Rocket - Pass Details

Date: 01 November 2021
Orbit: 920 x 1202 km, 28.3° (Epoch: 27 November)

Event Time Altitude Azimuth Distance (km) Brightness Sun altitude
Rises 12:08:26 0° 224° (SW) 3,961 9.3 22.8°
Reaches altitude 10° 12:13:56 10° 192° (SSW) 2,925 9.3 22.4°
Maximum altitude 12:15:43 11° 177° (S) 2,823 8.7 22.3°
Drops below altitude 10° 12:17:28 10° 162° (SSE) 2,871 8.3 22.2°
Sets 12:22:39 0° 129° (SE) 3,743 8.2 21.8°
